When you browse on this site, cookies collect data to enhance your experience and personalize the content and advertising you see.
Visit our Privacy Policy to learn more. By continuing to use the site, you agree to this use of cookies and data.
  • In United Kingdom
  • List of Countries
  • For 7 days
  • Water Temperature
  • Weather Map
  • Weather Widgets
  • user-avatar
    Login

    Hourly Weather Karachi

    Today, 19 October, Saturday

    Time Temperature Precipitation Wind Pressure Humidity
    00:00 +30°C° 0 mm 2 mps 756 mmHg 67%
    01:00 +30°C° 0 mm 2 mps 756 mmHg 67%
    02:00 +29°C° 0 mm 2 mps 756 mmHg 68%
    03:00 +29°C° 0 mm 1 mps 756 mmHg 68%
    04:00 +28°C° 0 mm 1 mps 756 mmHg 68%
    05:00 +29°C° 0 mm 1 mps 757 mmHg 64%
    06:00 +30°C° 0 mm 1 mps 757 mmHg 60%
    07:00 +30°C° 0 mm 2 mps 758 mmHg 56%
    08:00 +32°C° 0 mm 2 mps 758 mmHg 44%
    09:00 +35°C° 0 mm 2 mps 758 mmHg 31%
    10:00 +37°C° 0 mm 3 mps 758 mmHg 18%
    11:00 +38°C° 0 mm 2 mps 758 mmHg 17%
    12:00 +38°C° 0 mm 2 mps 757 mmHg 16%
    13:00 +39°C° 0 mm 1 mps 757 mmHg 16%
    14:00 +39°C° 0 mm 1 mps 756 mmHg 16%
    15:00 +39°C° 0 mm 2 mps 756 mmHg 17%
    16:00 +39°C° 0 mm 3 mps 756 mmHg 18%
    17:00 +37°C° 0 mm 2 mps 756 mmHg 22%
    18:00 +36°C° 0 mm 2 mps 756 mmHg 25%
    19:00 +35°C° 0 mm 2 mps 757 mmHg 29%
    20:00 +35°C° 0 mm 2 mps 757 mmHg 31%
    21:00 +34°C° 0 mm 2 mps 757 mmHg 34%
    22:00 +32°C° 0 mm 2 mps 757 mmHg 36%
    23:00 +32°C° 0 mm 2 mps 757 mmHg 34%

    Tomorrow, 20 October, Sunday

    Time Temperature Precipitation Wind Pressure Humidity
    00:00 +32°C° 0 mm 2 mps 757 mmHg 33%
    01:00 +32°C° 0 mm 2 mps 757 mmHg 31%
    02:00 +32°C° 0 mm 2 mps 757 mmHg 30%
    03:00 +31°C° 0 mm 3 mps 757 mmHg 29%
    04:00 +31°C° 0 mm 3 mps 757 mmHg 28%
    05:00 +31°C° 0 mm 3 mps 757 mmHg 27%
    06:00 +33°C° 0 mm 3 mps 758 mmHg 26%
    07:00 +33°C° 0 mm 3 mps 758 mmHg 26%
    08:00 +34°C° 0 mm 3 mps 758 mmHg 23%
    09:00 +36°C° 0 mm 3 mps 758 mmHg 20%
    10:00 +38°C° 0 mm 3 mps 758 mmHg 17%
    11:00 +38°C° 0 mm 3 mps 758 mmHg 17%
    12:00 +38°C° 0 mm 3 mps 757 mmHg 16%
    13:00 +39°C° 0 mm 2 mps 757 mmHg 16%
    14:00 +39°C° 0 mm 2 mps 756 mmHg 17%
    15:00 +38°C° 0 mm 2 mps 756 mmHg 17%
    16:00 +38°C° 0 mm 3 mps 756 mmHg 18%
    17:00 +37°C° 0 mm 3 mps 756 mmHg 21%
    18:00 +36°C° 0 mm 3 mps 756 mmHg 25%
    19:00 +34°C° 0 mm 3 mps 757 mmHg 29%
    20:00 +34°C° 0 mm 3 mps 757 mmHg 31%
    21:00 +32°C° 0 mm 2 mps 757 mmHg 33%
    22:00 +32°C° 0 mm 2 mps 757 mmHg 35%
    23:00 +31°C° 0 mm 2 mps 757 mmHg 39%

    Day after tomorrow, 21 October, Monday

    Time Temperature Precipitation Wind Pressure Humidity
    00:00 +31°C° 0 mm 2 mps 757 mmHg 42%
    01:00 +30°C° 0 mm 2 mps 757 mmHg 46%
    02:00 +30°C° 0 mm 2 mps 757 mmHg 47%
    03:00 +30°C° 0 mm 2 mps 757 mmHg 47%
    04:00 +30°C° 0 mm 2 mps 757 mmHg 48%
    05:00 +30°C° 0 mm 1 mps 757 mmHg 46%
    06:00 +31°C° 0 mm 1 mps 757 mmHg 44%
    07:00 +31°C° 0 mm 1 mps 758 mmHg 42%
    08:00 +32°C° 0 mm 2 mps 758 mmHg 38%
    09:00 +35°C° 0 mm 2 mps 758 mmHg 34%
    10:00 +36°C° 0 mm 2 mps 758 mmHg 30%
    11:00 +36°C° 0 mm 2 mps 757 mmHg 28%
    12:00 +37°C° 0 mm 3 mps 756 mmHg 26%
    13:00 +37°C° 0 mm 3 mps 756 mmHg 24%
    14:00 +37°C° 0 mm 4 mps 755 mmHg 26%
    15:00 +36°C° 0 mm 4 mps 755 mmHg 28%
    16:00 +36°C° 0 mm 5 mps 755 mmHg 30%
    17:00 +35°C° 0 mm 5 mps 755 mmHg 33%
    18:00 +34°C° 0 mm 5 mps 755 mmHg 36%
    19:00 +33°C° 0 mm 4 mps 756 mmHg 39%
    20:00 +33°C° 0 mm 4 mps 756 mmHg 43%
    21:00 +31°C° 0 mm 3 mps 756 mmHg 46%
    22:00 +31°C° 0 mm 3 mps 756 mmHg 49%
    23:00 +31°C° 0 mm 3 mps 756 mmHg 52%

    22 October, Tuesday

    Time Temperature Precipitation Wind Pressure Humidity
    00:00 +30°C° 0 mm 3 mps 756 mmHg 54%
    01:00 +30°C° 0 mm 3 mps 756 mmHg 56%
    02:00 +30°C° 0 mm 3 mps 755 mmHg 55%
    03:00 +29°C° 0 mm 2 mps 755 mmHg 55%
    04:00 +29°C° 0 mm 2 mps 755 mmHg 54%
    05:00 +30°C° 0 mm 2 mps 756 mmHg 54%
    06:00 +30°C° 0 mm 3 mps 756 mmHg 53%
    07:00 +30°C° 0 mm 3 mps 756 mmHg 52%
    08:00 +33°C° 0 mm 3 mps 756 mmHg 45%
    09:00 +34°C° 0 mm 3 mps 756 mmHg 37%
    10:00 +36°C° 0 mm 4 mps 756 mmHg 30%
    11:00 +36°C° 0 mm 4 mps 756 mmHg 29%
    12:00 +36°C° 0 mm 5 mps 755 mmHg 28%
    13:00 +37°C° 0 mm 5 mps 754 mmHg 27%
    14:00 +36°C° 0 mm 5 mps 754 mmHg 29%
    15:00 +35°C° 0 mm 5 mps 754 mmHg 30%
    16:00 +35°C° 0 mm 5 mps 754 mmHg 32%
    17:00 +34°C° 0 mm 5 mps 754 mmHg 37%
    18:00 +33°C° 0 mm 4 mps 754 mmHg 43%
    19:00 +32°C° 0 mm 4 mps 755 mmHg 48%
    20:00 +32°C° 0 mm 4 mps 755 mmHg 51%
    21:00 +30°C° 0 mm 4 mps 755 mmHg 54%
    22:00 +30°C° 0 mm 4 mps 755 mmHg 57%
    23:00 +30°C° 0 mm 4 mps 755 mmHg 58%

    23 October, Wednesday

    Time Temperature Precipitation Wind Pressure Humidity
    00:00 +30°C° 0 mm 4 mps 754 mmHg 59%
    01:00 +29°C° 0 mm 4 mps 754 mmHg 61%
    02:00 +29°C° 0 mm 4 mps 754 mmHg 62%
    03:00 +29°C° 0 mm 4 mps 754 mmHg 63%
    04:00 +29°C° 0 mm 4 mps 754 mmHg 64%
    05:00 +29°C° 0 mm 4 mps 754 mmHg 64%
    06:00 +30°C° 0 mm 4 mps 755 mmHg 64%
    07:00 +30°C° 0 mm 4 mps 755 mmHg 64%
    08:00 +32°C° 0 mm 4 mps 755 mmHg 58%
    09:00 +33°C° 0 mm 4 mps 755 mmHg 52%
    10:00 +35°C° 0 mm 4 mps 755 mmHg 46%
    11:00 +35°C° 0 mm 4 mps 754 mmHg 43%
    12:00 +36°C° 0 mm 4 mps 754 mmHg 40%
    13:00 +36°C° 0 mm 4 mps 753 mmHg 37%
    14:00 +36°C° 0 mm 4 mps 753 mmHg 40%
    15:00 +35°C° 0 mm 5 mps 752 mmHg 44%
    16:00 +34°C° 0 mm 6 mps 752 mmHg 48%
    17:00 +33°C° 0 mm 5 mps 752 mmHg 53%
    18:00 +33°C° 0 mm 5 mps 753 mmHg 59%
    19:00 +32°C° 0 mm 5 mps 753 mmHg 64%
    20:00 +32°C° 0 mm 5 mps 753 mmHg 65%
    21:00 +30°C° 0 mm 5 mps 753 mmHg 66%
    22:00 +30°C° 0 mm 5 mps 754 mmHg 67%
    23:00 +30°C° 0 mm 4 mps 753 mmHg 66%

    24 October, Thursday

    Time Temperature Precipitation Wind Pressure Humidity
    00:00 +30°C° 0 mm 3 mps 753 mmHg 66%
    01:00 +29°C° 0 mm 3 mps 753 mmHg 66%
    02:00 +29°C° 0 mm 3 mps 753 mmHg 67%
    03:00 +29°C° 0 mm 2 mps 753 mmHg 68%
    04:00 +28°C° 0 mm 2 mps 753 mmHg 68%
    05:00 +29°C° 0 mm 2 mps 753 mmHg 65%
    06:00 +29°C° 0 mm 2 mps 753 mmHg 63%
    07:00 +30°C° 0 mm 1 mps 754 mmHg 60%
    08:00 +31°C° 0 mm 2 mps 754 mmHg 51%
    09:00 +34°C° 0 mm 3 mps 754 mmHg 43%
    10:00 +35°C° 0 mm 3 mps 754 mmHg 34%
    11:00 +36°C° 0 mm 3 mps 753 mmHg 31%
    12:00 +36°C° 0 mm 4 mps 753 mmHg 27%
    13:00 +37°C° 0 mm 4 mps 752 mmHg 24%
    14:00 +36°C° 0 mm 4 mps 752 mmHg 26%
    15:00 +36°C° 0 mm 4 mps 752 mmHg 28%
    16:00 +35°C° 0 mm 4 mps 752 mmHg 30%
    17:00 +34°C° 0 mm 4 mps 752 mmHg 36%
    18:00 +33°C° 0 mm 3 mps 753 mmHg 42%
    19:00 +31°C° 0 mm 3 mps 753 mmHg 48%
    20:00 +31°C° 0 mm 2 mps 753 mmHg 49%
    21:00 +30°C° 0 mm 2 mps 754 mmHg 49%
    22:00 +30°C° 0 mm 1 mps 754 mmHg 50%
    23:00 +29°C° 0 mm 1 mps 754 mmHg 50%
    Show more